Location: Wildlife_Club
(35.6000°N, 81.4330°W)
Time: 21:04:44
(UTC-04:00)

A-11 Canister half - Pass Details

Date: 14 August 2020
Orbit: 1514 x 1686 km, 47.2° (Epoch: 26 September)

Event Time Altitude Azimuth Distance (km) Brightness Sun altitude
Rises 23:24:31 0° 303° (WNW) 4,837 12.6 -32.2°
Reaches altitude 10° 23:27:37 10° 305° (NW) 3,871 11.9 -32.6°
Maximum altitude 23:37:36 75° 31° (NNE) 1,719 9.1 -33.8°
Enters shadow 23:39:35 61° 91° (E) 1,859 9.1 -34.0°
